This is the latest recevied weather packets stored in our database for station/object WA6OOO. If no packets are shown the sender has not sent any weather packets the latest 10 day(s).
| Time | Temp. | Humidity | Pressure | Rain* | Wind** | Luminosity | Snow |
|---|---|---|---|---|---|---|---|
| 1777607971 | 14.44° C | 87% | 1015 hPa | 0 mm | - | 0 W/m² | - |
| 1777607667 | 15° C | 87% | 1014.8 hPa | 0 mm | - | 0 W/m² | - |
| 1777607364 | 15° C | 87% | 1014.6 hPa | 0 mm | - | 0 W/m² | - |
| 1777607060 | 15° C | 86% | 1014.6 hPa | 0 mm | - | 0 W/m² | - |
| 1777606756 | 15° C | 86% | 1014.5 hPa | 0 mm | - | 0 W/m² | - |
| 1777606451 | 15° C | 86% | 1014.6 hPa | 0 mm | - | 0 W/m² | - |
| 1777606146 | 15° C | 86% | 1014.3 hPa | 0 mm | - | 0 W/m² | - |
| 1777605844 | 15° C | 85% | 1014.3 hPa | 0 mm | - | 0 W/m² | - |
| 1777605543 | 15° C | 85% | 1014.2 hPa | 0 mm | - | 0 W/m² | - |
| 1777605239 | 15.56° C | 85% | 1014.2 hPa | 0 mm | - | 0 W/m² | - |
| 1777604935 | 15.56° C | 84% | 1014.2 hPa | 0 mm | - | 0 W/m² | - |
| 1777604630 | 15.56° C | 84% | 1014.3 hPa | 0 mm | - | 0 W/m² | - |
| 1777604327 | 15.56° C | 84% | 1014.1 hPa | 0 mm | - | 0 W/m² | - |
| 1777604021 | 15.56° C | 84% | 1013.9 hPa | 0 mm | - | 0 W/m² | - |
| 1777603719 | 15.56° C | 84% | 1013.7 hPa | 0 mm | - | 1 W/m² | - |
| 1777603415 | 15.56° C | 83% | 1013.7 hPa | 0 mm | - | 2 W/m² | - |
| 1777603110 | 15.56° C | 83% | 1013.9 hPa | 0 mm | - | 4 W/m² | - |
| 1777602806 | 15.56° C | 83% | 1013.7 hPa | 0 mm | - | 7 W/m² | - |
| 1777602501 | 15.56° C | 83% | 1013.7 hPa | 0 mm | - | 10 W/m² | - |
| 1777602198 | 16.11° C | 82% | 1013.7 hPa | 0 mm | - | 14 W/m² | - |
| 1777601893 | 16.11° C | 82% | 1013.6 hPa | 0 mm | - | 18 W/m² | - |
| 1777601588 | 16.11° C | 82% | 1013.5 hPa | 0 mm | - | 22 W/m² | - |
| 1777601284 | 16.11° C | 81% | 1013.4 hPa | 0 mm | - | 26 W/m² | - |
| 1777600981 | 16.67° C | 81% | 1013.6 hPa | 0 mm | - | 31 W/m² | - |
| 1777600677 | 16.67° C | 81% | 1013.5 hPa | 0 mm | - | 35 W/m² | - |
* Rain latest hour (hover to see other rain measurements)
** Current wind speed in m/s (hover to see current wind gust speed)